{"data":{"norad_id":60153,"intl_designator":"2024-120U","name":"STARLINK-32131","alt_names":[],"object_type":"PAYLOAD","status":"ACTIVE","operator":null,"country":"US","launch_date":"2024-06-27","launch_site_code":"AFETR","launch_vehicle":null,"mission":null,"orbit_class":"UNKNOWN","rcs_meters":null,"size_class":null,"mass_kg":null,"dimensions":null,"purposes":["comms"],"wikipedia_slug":null,"has_3d_model":false,"image_url":null,"decayed_at":null,"tle_current":{"epoch":"2026-09-21T20:54:37.416960Z","epoch_age_seconds":63045,"freshness":"FRESH","line1":"1 60153U 24120U   26264.87126640  .00000700  00000+0  31860-4 0  9996","line2":"2 60153  53.1595 125.0503 0001336  91.0685 269.0471 15.34385364126542","mean_motion":15.34385364,"eccentricity":0.0001336,"inclination_deg":53.1595,"raan_deg":125.0503,"arg_perigee_deg":91.0685,"mean_anomaly_deg":269.0471,"bstar":3.186e-5,"rev_number":12654,"period_min":93.848653264396,"perigee_km":461.83279976138,"apogee_km":463.6606838972,"semimajor_km":6840.8837418293,"source":"CELESTRAK","updated_at":"2026-09-22T09:00:49.180416Z"}}}